Location: Auttagershofen
(48.1940°N, 10.0237°E)
Time: 02:06:17
(UTC+00:00)

Timation 1 Rocket - Pass Details

Date: 18 January 2026
Orbit: 896 x 908 km, 70.0° (Epoch: 6 February)

Event Time Altitude Azimuth Distance (km) Brightness Sun altitude
Exits shadow 04:19:02 67° 322° (NW) 983 4.3 -26.9°
Maximum altitude 04:19:54 86° 244° (WSW) 916 4.2 -26.8°
Drops below altitude 10° 04:25:54 10° 155° (SSE) 2,585 7.0 -25.8°
Sets 04:28:23 0° 155° (SSE) 3,523 7.8 -25.3°
